Regional Weather Roundup
Issued by NWS Charleston, WV

Home | Current Version | Previous Version | Graphics & Text | Print | Product List | Glossary On
Versions: 1 2 3 4 5 6 7 8 9 10 11 12 13 14 15 16 17 18 19 20 21 22 23 24 25 26 27 28 29 30 31 32 33 34 35 36 37 38 39 40 41 42 43 44 45 46 47 48 49 50
000
ASUS41 KRLX 291010
RWRRLX
West Virginia Regional Weather Roundup
National Weather Service Charleston WV
600 AM EDT FRI MAY 29 2015

Note: "fair" indicates few or no clouds below 12,000 feet with no
significant weather and/or obstructions to visibility.

WVZ003-291100-
Northern Panhandle of West Virginia

CITY           SKY/WX    TMP DP  RH WIND       PRES   REMARKS
WHEELING       PTCLDY    63  54  72 E5        30.21R
$$

WVZ009-291100-
Northwest West Virginia

CITY           SKY/WX    TMP DP  RH WIND       PRES   REMARKS
PARKERSBURG    PTCLDY    62  60  93 CALM      30.21R FOG
$$

WVZ006-291100-
Western West Virginia

CITY           SKY/WX    TMP DP  RH WIND       PRES   REMARKS
HUNTINGTON     CLOUDY    66  65  96 E3        30.16R
$$

WVZ015-291100-
West Central West Virginia

CITY           SKY/WX    TMP DP  RH WIND       PRES   REMARKS
CHARLESTON     MOCLDY    64  63  96 CALM      30.18R FOG
$$

WVZ022-031-291100-
North Central West Virginia

CITY           SKY/WX    TMP DP  RH WIND       PRES   REMARKS
CLARKSBURG     PTCLDY    61  60  97 CALM      30.21R
MORGANTOWN     CLEAR     70  52  52 SE9       30.23R
$$

WVZ025-035-042-045-291100-
Southern West Virginia

CITY           SKY/WX    TMP DP  RH WIND       PRES   REMARKS
BECKLEY        CLEAR     65  59  81 SE6       30.25R
LOGAN          CLOUDY    64  63  94 CALM      30.18R
BLUEFIELD      PTCLDY    67  58  72 VRB5      30.28R
LEWISBURG      CLEAR     60  57  92 CALM      30.28R FOG
$$

WVZ047-291100-
Northern Mountains of West Virginia

CITY           SKY/WX    TMP DP  RH WIND       PRES   REMARKS
ELKINS         FOG       57  55  93 CALM      30.28R VSB 1/4
$$

WVZ052-291100-
Eastern Panhandle of West Virginia

CITY           SKY/WX    TMP DP  RH WIND       PRES   REMARKS
MARTINSBURG    PTCLDY    67  54  63 N5        30.25R
PETERSBURG     PTCLDY    60  58  92 CALM      30.28R FOG
$$


USA.gov is the U.S. government's official web portal to all federal, state and local government web resources and services.